Time,TemperatureF,DewpointF,PressureIn,WindDirection,WindDirectionDegrees,WindSpeedMPH,WindSpeedGustMPH,Humidity,HourlyPrecipIn,Conditions,Clouds,dailyrainin,SoftwareType,DateUTC
2013-03-05 00:00:00,33.3,22.0,29.93,NNW,332,0.0,0.0,63,0.00,CLR,,0.00,WeatherDisplay:10.37,2013-03-05 08:00:00,
2013-03-05 00:05:00,33.3,22.0,29.93,NNW,332,0.0,0.0,63,0.00,CLR,,0.00,WeatherDisplay:10.37,2013-03-05 08:05:00,
2013-03-05 00:10:00,33.3,22.0,29.93,NNW,332,0.0,0.0,63,0.00,CLR,,0.00,WeatherDisplay:10.37,2013-03-05 08:10:00,
2013-03-05 00:15:00,33.1,21.8,29.93,NNW,332,0.0,0.0,63,0.00,CLR,,0.00,WeatherDisplay:10.37,2013-03-05 08:15:00,
2013-03-05 00:20:00,33.1,22.2,29.93,NNW,332,0.0,0.0,64,0.00,CLR,,0.00,WeatherDisplay:10.37,2013-03-05 08:20:00,
2013-03-05 00:25:00,33.1,22.2,29.93,NNW,332,0.0,0.0,64,0.00,CLR,,0.00,WeatherDisplay:10.37,2013-03-05 08:25:00,
2013-03-05 00:30:00,32.9,22.0,29.93,NNW,332,0.0,0.0,64,0.00,CLR,,0.00,WeatherDisplay:10.37,2013-03-05 08:30:00,
2013-03-05 00:35:00,32.9,22.0,29.93,NNW,332,0.0,0.0,64,0.00,CLR,,0.00,WeatherDisplay:10.37,2013-03-05 08:35:00,
2013-03-05 00:40:00,32.7,21.9,29.93,NNW,332,0.0,0.0,64,0.00,CLR,,0.00,WeatherDisplay:10.37,2013-03-05 08:40:00,
2013-03-05 00:45:00,32.7,22.2,29.93,NNW,332,0.0,0.0,65,0.00,CLR,,0.00,WeatherDisplay:10.37,2013-03-05 08:45:00,
2013-03-05 00:50:00,32.7,22.2,29.93,NNW,332,0.0,0.0,65,0.00,CLR,,0.00,WeatherDisplay:10.37,2013-03-05 08:50:00,
2013-03-05 00:55:00,32.7,22.2,29.93,NNW,332,0.0,0.0,65,0.00,CLR,,0.00,WeatherDisplay:10.37,2013-03-05 08:55:00,
2013-03-05 01:00:00,32.5,22.1,29.93,NNW,332,0.0,0.0,65,0.00,CLR,,0.00,WeatherDisplay:10.37,2013-03-05 09:00:00,
2013-03-05 01:05:00,32.5,22.1,29.93,NNW,332,0.0,0.0,65,0.00,CLR,,0.00,WeatherDisplay:10.37,2013-03-05 09:05:00,
2013-03-05 01:10:00,32.5,22.4,29.93,NNW,332,0.0,0.0,66,0.00,CLR,,0.00,WeatherDisplay:10.37,2013-03-05 09:10:00,
2013-03-05 01:15:00,32.5,22.4,29.93,NNW,332,0.0,0.0,66,0.00,CLR,,0.00,WeatherDisplay:10.37,2013-03-05 09:15:00,
2013-03-05 01:20:00,32.5,22.4,29.93,NNW,332,0.0,0.0,66,0.00,CLR,,0.00,WeatherDisplay:10.37,2013-03-05 09:20:00,
2013-03-05 01:25:00,32.7,22.6,29.93,NNW,332,0.0,0.0,66,0.00,CLR,,0.00,WeatherDisplay:10.37,2013-03-05 09:25:00,
2013-03-05 01:30:00,32.7,23.0,29.93,NNW,332,0.0,0.0,67,0.00,CLR,,0.00,WeatherDisplay:10.37,2013-03-05 09:30:00,
2013-03-05 01:35:00,32.9,23.1,29.93,NNW,332,0.0,0.0,67,0.00,CLR,,0.00,WeatherDisplay:10.37,2013-03-05 09:35:00,
2013-03-05 01:40:00,32.9,23.1,29.93,NNW,332,0.0,0.0,67,0.00,CLR,,0.00,WeatherDisplay:10.37,2013-03-05 09:40:00,
2013-03-05 01:45:00,33.1,23.3,29.93,NNW,332,0.0,0.0,67,0.00,CLR,,0.00,WeatherDisplay:10.37,2013-03-05 09:45:00,
2013-03-05 01:50:00,33.1,23.3,29.93,NNW,332,0.0,0.0,67,0.00,CLR,,0.00,WeatherDisplay:10.37,2013-03-05 09:50:00,
2013-03-05 01:55:00,33.3,23.8,29.93,NNW,332,0.0,0.0,68,0.00,CLR,,0.00,WeatherDisplay:10.37,2013-03-05 09:55:00,
2013-03-05 02:00:00,33.4,24.0,29.93,NNW,332,0.0,0.0,68,0.00,CLR,,0.00,WeatherDisplay:10.37,2013-03-05 10:00:00,
2013-03-05 02:05:00,33.4,24.0,29.93,NNW,332,0.0,0.0,68,0.00,CLR,,0.00,WeatherDisplay:10.37,2013-03-05 10:05:00,
2013-03-05 02:10:00,33.6,24.2,29.93,NNW,332,0.0,0.0,68,0.00,CLR,,0.00,WeatherDisplay:10.37,2013-03-05 10:10:00,
2013-03-05 02:15:00,33.6,24.5,29.93,NNW,332,0.0,0.0,69,0.00,CLR,,0.00,WeatherDisplay:10.37,2013-03-05 10:15:00,
2013-03-05 02:20:00,33.8,24.7,29.93,NNW,332,0.0,0.0,69,0.00,OVC,,0.00,WeatherDisplay:10.37,2013-03-05 10:20:00,
2013-03-05 02:25:00,33.8,24.7,29.91,NNW,332,0.0,0.0,69,0.00,OVC,,0.00,WeatherDisplay:10.37,2013-03-05 10:25:00,
2013-03-05 02:30:00,34.0,24.9,29.91,NNW,332,0.0,0.0,69,0.00,OVC,,0.00,WeatherDisplay:10.37,2013-03-05 10:30:00,
2013-03-05 02:35:00,34.0,24.9,29.91,NNW,332,0.0,0.0,69,0.00,OVC,,0.00,WeatherDisplay:10.37,2013-03-05 10:35:00,
2013-03-05 02:40:00,34.2,25.4,29.91,NNW,332,0.0,0.0,70,0.00,OVC,,0.00,WeatherDisplay:10.37,2013-03-05 10:40:00,
2013-03-05 02:45:00,34.2,25.4,29.91,NNW,332,0.0,0.0,70,0.00,OVC,,0.00,WeatherDisplay:10.37,2013-03-05 10:45:00,
2013-03-05 02:50:00,34.3,25.6,29.91,NNW,332,0.0,0.0,70,0.00,OVC,,0.00,WeatherDisplay:10.37,2013-03-05 10:50:00,
2013-03-05 02:55:00,34.3,25.6,29.91,NNW,332,0.0,0.0,70,0.00,OVC,,0.00,WeatherDisplay:10.37,2013-03-05 10:55:00,
2013-03-05 03:00:00,34.5,25.7,29.91,NNW,332,0.0,0.0,70,0.00,OVC,,0.00,WeatherDisplay:10.37,2013-03-05 11:00:00,
2013-03-05 03:05:00,34.5,25.7,29.91,NNW,332,0.0,0.0,70,0.00,OVC,,0.00,WeatherDisplay:10.37,2013-03-05 11:05:00,
2013-03-05 03:10:00,34.5,26.1,29.91,NNW,332,0.0,0.0,71,0.00,OVC,,0.00,WeatherDisplay:10.37,2013-03-05 11:10:00,
2013-03-05 03:15:00,34.7,26.3,29.91,NNW,332,0.0,0.0,71,0.00,OVC,,0.00,WeatherDisplay:10.37,2013-03-05 11:15:00,
2013-03-05 03:20:00,34.7,26.3,29.91,NNW,332,0.0,0.0,71,0.00,OVC,,0.00,WeatherDisplay:10.37,2013-03-05 11:20:00,
2013-03-05 03:25:00,34.7,26.3,29.91,NNW,332,0.0,0.0,71,0.00,OVC,,0.00,WeatherDisplay:10.37,2013-03-05 11:25:00,
2013-03-05 03:30:00,34.9,26.4,29.91,NE,38,0.0,0.0,71,0.00,OVC,,0.00,WeatherDisplay:10.37,2013-03-05 11:30:00,
2013-03-05 03:35:00,34.9,26.8,29.91,NE,41,0.0,0.0,72,0.00,OVC,,0.00,WeatherDisplay:10.37,2013-03-05 11:35:00,
2013-03-05 03:40:00,34.9,26.8,29.88,NE,41,0.0,0.0,72,0.00,OVC,,0.00,WeatherDisplay:10.37,2013-03-05 11:40:00,
2013-03-05 03:45:00,35.1,26.9,29.88,NE,41,0.0,0.0,72,0.00,OVC,,0.00,WeatherDisplay:10.37,2013-03-05 11:45:00,
2013-03-05 03:50:00,35.1,26.9,29.88,NE,41,0.0,0.0,72,0.00,OVC,,0.00,WeatherDisplay:10.37,2013-03-05 11:50:00,
2013-03-05 03:55:00,35.1,26.9,29.88,NE,41,0.0,0.0,72,0.00,OVC,,0.00,WeatherDisplay:10.37,2013-03-05 11:55:00,
2013-03-05 04:00:00,35.2,27.4,29.88,NE,41,0.0,0.0,73,0.00,OVC,,0.00,WeatherDisplay:10.37,2013-03-05 12:00:00,
2013-03-05 04:05:00,35.2,27.4,29.88,NE,41,0.0,0.0,73,0.00,OVC,,0.00,WeatherDisplay:10.37,2013-03-05 12:05:00,
2013-03-05 04:10:00,35.4,27.6,29.88,NE,41,0.0,0.0,73,0.00,OVC,,0.00,WeatherDisplay:10.37,2013-03-05 12:10:00,
2013-03-05 04:15:00,35.4,27.6,29.88,NE,41,0.0,0.0,73,0.00,OVC,,0.00,WeatherDisplay:10.37,2013-03-05 12:15:00,
2013-03-05 04:20:00,35.4,27.6,29.88,NE,41,0.0,0.0,73,0.00,OVC,,0.00,WeatherDisplay:10.37,2013-03-05 12:20:00,
2013-03-05 04:25:00,35.4,27.6,29.88,NE,41,0.0,0.0,73,0.00,OVC,,0.00,WeatherDisplay:10.37,2013-03-05 12:25:00,
2013-03-05 04:30:00,35.4,28.0,29.88,NE,41,0.0,0.0,74,0.00,OVC,,0.00,WeatherDisplay:10.37,2013-03-05 12:30:00,
2013-03-05 04:35:00,35.6,27.8,29.88,NE,41,0.0,0.0,73,0.00,OVC,,0.00,WeatherDisplay:10.37,2013-03-05 12:35:00,
2013-03-05 04:40:00,35.6,27.8,29.88,NE,41,0.0,0.0,73,0.00,OVC,,0.00,WeatherDisplay:10.37,2013-03-05 12:40:00,
2013-03-05 04:45:00,35.6,28.1,29.88,NE,41,0.0,0.0,74,0.00,OVC,,0.00,WeatherDisplay:10.37,2013-03-05 12:45:00,
2013-03-05 04:50:00,35.6,28.1,29.88,NE,41,0.0,0.0,74,0.00,OVC,,0.00,WeatherDisplay:10.37,2013-03-05 12:50:00,
2013-03-05 04:55:00,35.8,28.3,29.88,NE,41,0.0,0.0,74,0.00,OVC,,0.00,WeatherDisplay:10.37,2013-03-05 12:55:00,
2013-03-05 05:00:00,35.8,28.3,29.88,NE,41,0.0,0.0,74,0.00,OVC,,0.00,WeatherDisplay:10.37,2013-03-05 13:00:00,
2013-03-05 05:05:00,35.8,28.3,29.88,NE,41,0.0,0.0,74,0.00,OVC,,0.00,WeatherDisplay:10.37,2013-03-05 13:05:00,
2013-03-05 05:10:00,36.0,28.5,29.88,NE,41,0.0,0.0,74,0.00,OVC,,0.00,WeatherDisplay:10.37,2013-03-05 13:10:00,
2013-03-05 05:15:00,36.0,28.5,29.88,NE,41,0.0,0.0,74,0.00,OVC,,0.00,WeatherDisplay:10.37,2013-03-05 13:15:00,
2013-03-05 05:20:00,36.1,29.0,29.88,NE,41,0.0,0.0,75,0.00,OVC,,0.00,WeatherDisplay:10.37,2013-03-05 13:20:00,
2013-03-05 05:25:00,36.1,29.0,29.88,NE,41,0.0,0.0,75,0.00,OVC,,0.00,WeatherDisplay:10.37,2013-03-05 13:25:00,
2013-03-05 05:30:00,36.1,29.0,29.88,NE,41,0.0,0.0,75,0.00,OVC,,0.00,WeatherDisplay:10.37,2013-03-05 13:30:00,
2013-03-05 05:35:00,36.3,29.2,29.88,NNW,343,0.0,0.0,75,0.00,OVC,,0.00,WeatherDisplay:10.37,2013-03-05 13:35:00,
2013-03-05 05:40:00,36.3,29.2,29.85,NNW,343,0.0,0.0,75,0.00,OVC,,0.00,WeatherDisplay:10.37,2013-03-05 13:40:00,
2013-03-05 05:45:00,36.3,29.2,29.85,North,0,0.0,0.0,75,0.00,OVC,,0.00,WeatherDisplay:10.37,2013-03-05 13:45:00,
2013-03-05 05:50:00,36.3,29.2,29.85,North,0,0.0,0.0,75,0.00,OVC,,0.00,WeatherDisplay:10.37,2013-03-05 13:50:00,
2013-03-05 05:55:00,36.5,29.3,29.88,North,0,0.0,0.0,75,0.00,OVC,,0.00,WeatherDisplay:10.37,2013-03-05 13:55:00,
2013-03-05 06:00:00,36.5,29.7,29.88,North,1,0.0,0.0,76,0.00,OVC,,0.00,WeatherDisplay:10.37,2013-03-05 14:00:00,
2013-03-05 06:05:00,36.5,29.7,29.88,ENE,66,4.6,0.0,76,0.00,OVC,,0.00,WeatherDisplay:10.37,2013-03-05 14:05:00,
2013-03-05 06:10:00,36.7,29.8,29.88,ENE,70,3.5,0.0,76,0.00,OVC,,0.00,WeatherDisplay:10.37,2013-03-05 14:10:00,
2013-03-05 06:15:00,36.7,29.8,29.88,ENE,70,0.0,0.0,76,0.00,OVC,,0.00,WeatherDisplay:10.37,2013-03-05 14:15:00,
2013-03-05 06:20:00,36.7,29.8,29.88,ENE,70,0.0,0.0,76,0.00,OVC,,0.00,WeatherDisplay:10.37,2013-03-05 14:20:00,
2013-03-05 06:25:00,36.9,30.0,29.88,ENE,70,0.0,0.0,76,0.00,OVC,,0.00,WeatherDisplay:10.37,2013-03-05 14:25:00,
2013-03-05 06:30:00,36.9,30.0,29.88,ENE,70,0.0,0.0,76,0.00,OVC,,0.00,WeatherDisplay:10.37,2013-03-05 14:30:00,
2013-03-05 06:35:00,37.0,30.2,29.88,ENE,70,0.0,0.0,76,0.00,OVC,,0.00,WeatherDisplay:10.37,2013-03-05 14:35:00,
2013-03-05 06:40:00,37.0,30.5,29.85,ENE,70,0.0,0.0,77,0.00,OVC,,0.00,WeatherDisplay:10.37,2013-03-05 14:40:00,
2013-03-05 06:45:00,37.2,30.7,29.85,ENE,70,0.0,0.0,77,0.00,OVC,,0.00,WeatherDisplay:10.37,2013-03-05 14:45:00,
2013-03-05 06:50:00,37.4,30.5,29.85,ENE,70,0.0,0.0,76,0.00,OVC,,0.00,WeatherDisplay:10.37,2013-03-05 14:50:00,
2013-03-05 06:55:00,37.4,30.5,29.85,ENE,70,0.0,0.0,76,0.00,OVC,,0.00,WeatherDisplay:10.37,2013-03-05 14:55:00,
2013-03-05 07:00:00,37.4,30.5,29.85,ENE,70,0.0,0.0,76,0.00,OVC,,0.00,WeatherDisplay:10.37,2013-03-05 15:00:00,
2013-03-05 07:05:00,37.4,30.8,29.85,ENE,70,0.0,0.0,77,0.00,OVC,,0.00,WeatherDisplay:10.37,2013-03-05 15:05:00,
2013-03-05 07:10:00,37.6,31.0,29.85,ENE,70,0.0,0.0,77,0.00,OVC,,0.00,WeatherDisplay:10.37,2013-03-05 15:10:00,
2013-03-05 07:15:00,37.6,31.0,29.85,ENE,70,0.0,0.0,77,0.00,OVC,,0.00,WeatherDisplay:10.37,2013-03-05 15:15:00,
2013-03-05 07:20:00,37.8,31.2,29.85,ENE,70,0.0,0.0,77,0.00,-RA,,0.00,WeatherDisplay:10.37,2013-03-05 15:20:00,
2013-03-05 07:25:00,37.8,31.2,29.85,ENE,70,0.0,0.0,77,0.00,-RA,,0.00,WeatherDisplay:10.37,2013-03-05 15:25:00,
2013-03-05 07:30:00,37.9,31.4,29.85,ENE,70,0.0,0.0,77,0.00,-RA,,0.00,WeatherDisplay:10.37,2013-03-05 15:30:00,
2013-03-05 07:35:00,37.9,31.4,29.85,ENE,70,2.3,0.0,77,0.00,-RA,,0.00,WeatherDisplay:10.37,2013-03-05 15:35:00,
2013-03-05 07:40:00,37.9,31.4,29.85,ENE,70,0.0,0.0,77,0.00,-RA,,0.00,WeatherDisplay:10.37,2013-03-05 15:40:00,
2013-03-05 07:45:00,37.9,31.4,29.85,ENE,70,0.0,0.0,77,0.00,-RA,,0.00,WeatherDisplay:10.37,2013-03-05 15:45:00,
2013-03-05 07:50:00,37.9,31.4,29.85,ENE,70,0.0,0.0,77,0.00,-RA,,0.00,WeatherDisplay:10.37,2013-03-05 15:50:00,
2013-03-05 07:55:00,38.1,31.5,29.85,NNW,335,2.3,0.0,77,0.00,-RA,,0.00,WeatherDisplay:10.37,2013-03-05 15:55:00,
2013-03-05 08:00:00,38.1,31.9,29.85,North,1,2.3,2.3,78,0.00,-RA,,0.00,WeatherDisplay:10.37,2013-03-05 16:00:00,
2013-03-05 08:05:00,38.1,31.9,29.85,NE,48,0.0,0.0,78,0.00,-RA,,0.00,WeatherDisplay:10.37,2013-03-05 16:05:00,
2013-03-05 08:10:00,38.3,32.0,29.88,ENE,64,0.0,0.0,78,0.00,-RA,,0.00,WeatherDisplay:10.37,2013-03-05 16:10:00,
2013-03-05 08:15:00,38.3,32.0,29.88,ENE,64,0.0,0.0,78,0.00,-RA,,0.00,WeatherDisplay:10.37,2013-03-05 16:15:00,
2013-03-05 08:20:00,38.5,32.2,29.88,ENE,64,0.0,0.0,78,0.00,OVC,,0.00,WeatherDisplay:10.37,2013-03-05 16:20:00,
2013-03-05 08:25:00,38.5,32.2,29.88,ENE,64,0.0,0.0,78,0.00,OVC,,0.00,WeatherDisplay:10.37,2013-03-05 16:25:00,
2013-03-05 08:30:00,38.7,32.4,29.88,ENE,64,0.0,0.0,78,0.00,OVC,,0.00,WeatherDisplay:10.37,2013-03-05 16:30:00,
2013-03-05 08:35:00,38.7,32.4,29.88,ENE,64,0.0,0.0,78,0.00,OVC,,0.00,WeatherDisplay:10.37,2013-03-05 16:35:00,
2013-03-05 08:40:00,38.8,32.6,29.88,ENE,64,0.0,0.0,78,0.00,OVC,,0.00,WeatherDisplay:10.37,2013-03-05 16:40:00,
2013-03-05 08:45:00,38.8,32.6,29.88,ENE,64,0.0,0.0,78,0.00,OVC,,0.00,WeatherDisplay:10.37,2013-03-05 16:45:00,
2013-03-05 08:50:00,39.0,32.7,29.88,ENE,64,0.0,0.0,78,0.00,OVC,,0.00,WeatherDisplay:10.37,2013-03-05 16:50:00,
2013-03-05 08:55:00,39.2,32.9,29.88,ENE,64,0.0,0.0,78,0.00,OVC,,0.00,WeatherDisplay:10.37,2013-03-05 16:55:00,
2013-03-05 09:00:00,39.2,32.9,29.88,ENE,72,2.3,0.0,78,0.00,OVC,,0.00,WeatherDisplay:10.37,2013-03-05 17:00:00,
2013-03-05 09:05:00,39.4,33.1,29.88,SW,225,3.5,0.0,78,0.00,OVC,,0.00,WeatherDisplay:10.37,2013-03-05 17:05:00,
2013-03-05 09:10:00,39.7,33.8,29.88,SE,124,2.3,0.0,79,0.00,OVC,,0.00,WeatherDisplay:10.37,2013-03-05 17:10:00,
2013-03-05 09:15:00,39.7,33.8,29.88,SE,124,0.0,0.0,79,0.00,OVC,,0.00,WeatherDisplay:10.37,2013-03-05 17:15:00,
2013-03-05 09:20:00,39.9,33.9,29.88,SW,225,0.0,0.0,79,0.00,OVC,,0.00,WeatherDisplay:10.37,2013-03-05 17:20:00,
2013-03-05 09:25:00,40.1,34.1,29.88,ENE,67,0.0,0.0,79,0.00,OVC,,0.00,WeatherDisplay:10.37,2013-03-05 17:25:00,
2013-03-05 09:30:00,40.3,34.3,29.88,NNE,16,0.0,0.0,79,0.00,OVC,,0.00,WeatherDisplay:10.37,2013-03-05 17:30:00,
2013-03-05 09:35:00,40.5,34.5,29.88,NNE,16,0.0,0.0,79,0.00,OVC,,0.00,WeatherDisplay:10.37,2013-03-05 17:35:00,
2013-03-05 09:40:00,40.6,35.0,29.88,NNE,15,0.0,0.0,80,0.00,OVC,,0.00,WeatherDisplay:10.37,2013-03-05 17:40:00,
2013-03-05 09:45:00,40.8,35.1,29.88,NNW,328,3.5,3.5,80,0.00,OVC,,0.00,WeatherDisplay:10.37,2013-03-05 17:45:00,
2013-03-05 09:50:00,41.0,35.0,29.88,NW,307,0.0,0.0,79,0.00,OVC,,0.00,WeatherDisplay:10.37,2013-03-05 17:50:00,
2013-03-05 09:55:00,41.2,35.2,29.88,NW,307,0.0,0.0,79,0.00,OVC,,0.00,WeatherDisplay:10.37,2013-03-05 17:55:00,
2013-03-05 10:00:00,41.4,35.7,29.88,NW,307,0.0,0.0,80,0.00,OVC,,0.00,WeatherDisplay:10.37,2013-03-05 18:00:00,
2013-03-05 10:05:00,41.5,35.8,29.88,ENE,64,0.0,0.0,80,0.00,OVC,,0.00,WeatherDisplay:10.37,2013-03-05 18:05:00,
2013-03-05 10:10:00,41.7,36.0,29.88,North,357,0.0,0.0,80,0.00,OVC,,0.00,WeatherDisplay:10.37,2013-03-05 18:10:00,
2013-03-05 10:15:00,41.9,36.2,29.88,North,6,3.5,0.0,80,0.00,OVC,,0.00,WeatherDisplay:10.37,2013-03-05 18:15:00,
2013-03-05 10:20:00,42.1,36.4,29.88,NW,317,3.5,3.5,80,0.00,OVC,,0.00,WeatherDisplay:10.37,2013-03-05 18:20:00,
2013-03-05 10:25:00,42.4,36.7,29.85,NW,317,0.0,0.0,80,0.00,OVC,,0.00,WeatherDisplay:10.37,2013-03-05 18:25:00,
2013-03-05 10:30:00,42.6,37.2,29.85,NW,322,0.0,0.0,81,0.00,OVC,,0.00,WeatherDisplay:10.37,2013-03-05 18:30:00,
2013-03-05 10:35:00,43.0,37.2,29.85,NW,318,3.5,0.0,80,0.00,OVC,,0.00,WeatherDisplay:10.37,2013-03-05 18:35:00,
2013-03-05 10:40:00,43.2,37.4,29.85,WNW,297,2.7,0.0,80,0.00,OVC,,0.00,WeatherDisplay:10.37,2013-03-05 18:40:00,
2013-03-05 10:45:00,43.5,37.8,29.85,NNW,341,0.0,0.0,80,0.00,OVC,,0.00,WeatherDisplay:10.37,2013-03-05 18:45:00,
2013-03-05 10:50:00,43.7,38.3,29.85,NNW,328,3.5,3.5,81,0.00,OVC,,0.00,WeatherDisplay:10.37,2013-03-05 18:50:00,
2013-03-05 10:55:00,43.9,38.4,29.85,NNW,342,0.0,0.0,81,0.00,OVC,,0.00,WeatherDisplay:10.37,2013-03-05 18:55:00,
2013-03-05 11:00:00,44.1,38.6,29.85,NW,314,2.3,2.3,81,0.00,OVC,,0.00,WeatherDisplay:10.37,2013-03-05 19:00:00,
2013-03-05 11:05:00,44.2,38.8,29.85,NNW,328,3.5,0.0,81,0.00,OVC,,0.00,WeatherDisplay:10.37,2013-03-05 19:05:00,
2013-03-05 11:10:00,44.6,38.8,29.85,NNW,328,0.0,0.0,80,0.00,OVC,,0.00,WeatherDisplay:10.37,2013-03-05 19:10:00,
2013-03-05 11:15:00,44.8,39.0,29.85,NW,316,3.5,3.5,80,0.00,OVC,,0.00,WeatherDisplay:10.37,2013-03-05 19:15:00,
2013-03-05 11:20:00,45.0,39.2,29.85,NW,314,0.0,0.0,80,0.00,OVC,,0.00,WeatherDisplay:10.37,2013-03-05 19:20:00,
2013-03-05 11:25:00,45.3,39.5,29.85,NW,314,0.0,0.0,80,0.00,OVC,,0.00,WeatherDisplay:10.37,2013-03-05 19:25:00,
2013-03-05 11:30:00,45.5,40.0,29.85,NNW,332,2.3,0.0,81,0.00,OVC,,0.00,WeatherDisplay:10.37,2013-03-05 19:30:00,
2013-03-05 11:35:00,45.9,40.4,29.85,NNW,337,2.3,2.3,81,0.00,OVC,,0.00,WeatherDisplay:10.37,2013-03-05 19:35:00,
2013-03-05 11:40:00,46.0,40.5,29.85,NW,318,2.3,0.0,81,0.00,OVC,,0.00,WeatherDisplay:10.37,2013-03-05 19:40:00,
2013-03-05 11:45:00,46.2,40.7,29.85,North,5,0.0,0.0,81,0.00,OVC,,0.00,WeatherDisplay:10.37,2013-03-05 19:45:00,
2013-03-05 11:50:00,46.6,40.7,29.85,North,0,3.5,0.0,80,0.00,OVC,,0.00,WeatherDisplay:10.37,2013-03-05 19:50:00,
2013-03-05 11:55:00,46.8,40.9,29.85,NW,326,2.7,0.0,80,0.00,OVC,,0.00,WeatherDisplay:10.37,2013-03-05 19:55:00,
2013-03-05 12:00:00,46.9,41.1,29.85,NW,320,3.5,3.5,80,0.00,OVC,,0.00,WeatherDisplay:10.37,2013-03-05 20:00:00,
2013-03-05 12:05:00,47.1,41.3,29.85,NW,325,0.0,0.0,80,0.00,OVC,,0.00,WeatherDisplay:10.37,2013-03-05 20:05:00,
2013-03-05 12:10:00,47.3,41.4,29.85,NW,308,2.3,0.0,80,0.00,OVC,,0.00,WeatherDisplay:10.37,2013-03-05 20:10:00,
2013-03-05 12:15:00,47.5,41.6,29.85,NNW,329,4.6,0.0,80,0.00,OVC,,0.00,WeatherDisplay:10.37,2013-03-05 20:15:00,
2013-03-05 12:20:00,47.5,41.6,29.85,NW,324,3.5,3.5,80,0.00,OVC,,0.00,WeatherDisplay:10.37,2013-03-05 20:20:00,
2013-03-05 12:25:00,47.7,41.5,29.85,NW,324,0.0,0.0,79,0.00,OVC,,0.00,WeatherDisplay:10.37,2013-03-05 20:25:00,
2013-03-05 12:30:00,47.8,41.6,29.85,North,353,0.0,0.0,79,0.00,OVC,,0.00,WeatherDisplay:10.37,2013-03-05 20:30:00,
2013-03-05 12:35:00,48.0,41.8,29.85,NNW,328,3.5,0.0,79,0.00,OVC,,0.00,WeatherDisplay:10.37,2013-03-05 20:35:00,
2013-03-05 12:40:00,48.0,41.8,29.85,NNW,327,2.3,0.0,79,0.00,OVC,,0.00,WeatherDisplay:10.37,2013-03-05 20:40:00,
2013-03-05 12:45:00,48.2,41.7,29.85,NNW,327,0.0,0.0,78,0.00,OVC,,0.00,WeatherDisplay:10.37,2013-03-05 20:45:00,
2013-03-05 12:50:00,48.4,41.8,29.85,NNW,327,2.7,0.0,78,0.00,OVC,,0.00,WeatherDisplay:10.37,2013-03-05 20:50:00,
2013-03-05 12:55:00,48.4,41.8,29.85,NNW,327,0.0,0.0,78,0.00,OVC,,0.00,WeatherDisplay:10.37,2013-03-05 20:55:00,
2013-03-05 13:00:00,48.6,42.0,29.85,NNW,348,3.5,3.5,78,0.00,OVC,,0.00,WeatherDisplay:10.37,2013-03-05 21:00:00,
2013-03-05 13:05:00,48.7,41.8,29.85,NNW,340,3.5,0.0,77,0.00,OVC,,0.00,WeatherDisplay:10.37,2013-03-05 21:05:00,
2013-03-05 13:10:00,48.7,41.8,29.85,NNW,339,0.0,0.0,77,0.00,OVC,,0.00,WeatherDisplay:10.37,2013-03-05 21:10:00,
2013-03-05 13:15:00,48.7,41.5,29.85,NNW,344,2.3,0.0,76,0.00,OVC,,0.00,WeatherDisplay:10.37,2013-03-05 21:15:00,
2013-03-05 13:20:00,48.9,41.7,29.85,NNW,328,3.5,3.5,76,0.00,OVC,,0.00,WeatherDisplay:10.37,2013-03-05 21:20:00,
2013-03-05 13:25:00,48.9,41.7,29.82,NNW,328,3.6,0.0,76,0.00,OVC,,0.00,WeatherDisplay:10.37,2013-03-05 21:25:00,
2013-03-05 13:30:00,49.1,41.9,29.82,WNW,293,2.3,0.0,76,0.00,OVC,,0.00,WeatherDisplay:10.37,2013-03-05 21:30:00,
2013-03-05 13:35:00,49.1,41.5,29.82,NW,322,3.1,0.0,75,0.00,OVC,,0.00,WeatherDisplay:10.37,2013-03-05 21:35:00,
2013-03-05 13:40:00,48.9,41.3,29.82,NW,312,3.1,0.0,75,0.00,OVC,,0.00,WeatherDisplay:10.37,2013-03-05 21:40:00,
2013-03-05 13:45:00,48.9,41.3,29.82,WNW,303,0.0,0.0,75,0.00,OVC,,0.00,WeatherDisplay:10.37,2013-03-05 21:45:00,
2013-03-05 13:50:00,48.9,41.3,29.82,NNW,333,3.5,0.0,75,0.00,OVC,,0.00,WeatherDisplay:10.37,2013-03-05 21:50:00,
2013-03-05 13:55:00,48.9,41.0,29.82,WNW,296,4.0,4.0,74,0.00,OVC,,0.00,WeatherDisplay:10.37,2013-03-05 21:55:00,
2013-03-05 14:00:00,48.7,40.8,29.82,WNW,295,3.5,3.5,74,0.00,OVC,,0.00,WeatherDisplay:10.37,2013-03-05 22:00:00,
2013-03-05 14:05:00,48.7,40.8,29.82,NW,315,3.5,3.5,74,0.00,OVC,,0.00,WeatherDisplay:10.37,2013-03-05 22:05:00,
2013-03-05 14:10:00,48.6,40.3,29.82,WNW,286,3.5,0.0,73,0.00,OVC,,0.00,WeatherDisplay:10.37,2013-03-05 22:10:00,
2013-03-05 14:15:00,48.4,40.1,29.82,NW,308,2.3,0.0,73,0.00,OVC,,0.00,WeatherDisplay:10.37,2013-03-05 22:15:00,
2013-03-05 14:20:00,48.2,39.6,29.82,West,279,0.0,0.0,72,0.00,OVC,,0.00,WeatherDisplay:10.37,2013-03-05 22:20:00,
2013-03-05 14:25:00,48.0,39.4,29.82,WSW,254,3.5,0.0,72,0.00,OVC,,0.00,WeatherDisplay:10.37,2013-03-05 22:25:00,
2013-03-05 14:30:00,47.8,39.2,29.82,West,280,3.5,3.5,72,0.00,OVC,,0.00,WeatherDisplay:10.37,2013-03-05 22:30:00,
2013-03-05 14:35:00,47.5,38.9,29.82,WNW,302,3.5,0.0,72,0.00,OVC,,0.00,WeatherDisplay:10.37,2013-03-05 22:35:00,
2013-03-05 14:40:00,47.5,38.5,29.82,WNW,296,0.0,0.0,71,0.00,OVC,,0.00,WeatherDisplay:10.37,2013-03-05 22:40:00,
2013-03-05 14:45:00,47.3,38.4,29.82,NW,305,2.2,0.0,71,0.00,OVC,,0.00,WeatherDisplay:10.37,2013-03-05 22:45:00,
2013-03-05 14:50:00,47.3,38.4,29.82,NW,305,2.3,0.0,71,0.00,OVC,,0.00,WeatherDisplay:10.37,2013-03-05 22:50:00,
2013-03-05 14:55:00,47.1,38.2,29.82,NW,305,0.0,0.0,71,0.00,OVC,,0.00,WeatherDisplay:10.37,2013-03-05 22:55:00,
2013-03-05 15:00:00,47.1,38.2,29.82,NW,305,0.0,0.0,71,0.00,OVC,,0.00,WeatherDisplay:10.37,2013-03-05 23:00:00,
2013-03-05 15:05:00,47.1,38.2,29.82,NW,304,2.7,0.0,71,0.00,OVC,,0.00,WeatherDisplay:10.37,2013-03-05 23:05:00,
2013-03-05 15:10:00,47.1,38.2,29.82,WNW,300,0.0,0.0,71,0.00,OVC,,0.00,WeatherDisplay:10.37,2013-03-05 23:10:00,
2013-03-05 15:15:00,46.9,38.0,29.82,South,181,2.3,0.0,71,0.00,OVC,,0.00,WeatherDisplay:10.37,2013-03-05 23:15:00,
2013-03-05 15:20:00,46.9,38.0,29.82,West,281,0.0,0.0,71,0.00,-RA,,0.00,WeatherDisplay:10.37,2013-03-05 23:20:00,
2013-03-05 15:25:00,46.9,38.0,29.82,WNW,286,2.3,0.0,71,0.00,-RA,,0.00,WeatherDisplay:10.37,2013-03-05 23:25:00,
2013-03-05 15:30:00,46.8,37.9,29.82,WNW,292,0.0,0.0,71,0.00,-RA,,0.00,WeatherDisplay:10.37,2013-03-05 23:30:00,
2013-03-05 15:35:00,46.6,37.7,29.82,WNW,285,0.0,0.0,71,0.00,-RA,,0.00,WeatherDisplay:10.37,2013-03-05 23:35:00,
2013-03-05 15:40:00,46.4,37.5,29.82,WSW,251,3.5,0.0,71,0.00,-RA,,0.00,WeatherDisplay:10.37,2013-03-05 23:40:00,
2013-03-05 15:45:00,46.4,37.5,29.82,WSW,251,0.0,0.0,71,0.00,-RA,,0.00,WeatherDisplay:10.37,2013-03-05 23:45:00,
2013-03-05 15:50:00,46.2,37.7,29.82,WSW,251,0.0,0.0,72,0.00,-RA,,0.00,WeatherDisplay:10.37,2013-03-05 23:50:00,
2013-03-05 15:55:00,46.2,37.7,29.82,WSW,251,0.0,0.0,72,0.00,-RA,,0.00,WeatherDisplay:10.37,2013-03-05 23:55:00,
2013-03-05 16:00:00,46.2,37.7,29.82,WSW,254,0.0,0.0,72,0.00,-RA,,0.00,WeatherDisplay:10.37,2013-03-06 00:00:00,
2013-03-05 16:05:00,46.2,37.7,29.82,WSW,254,0.0,0.0,72,0.00,-RA,,0.00,WeatherDisplay:10.37,2013-03-06 00:05:00,
2013-03-05 16:10:00,46.2,37.7,29.82,WSW,254,0.0,0.0,72,0.04,-RA,,0.04,WeatherDisplay:10.37,2013-03-06 00:10:00,
2013-03-05 16:15:00,46.2,37.7,29.82,WSW,254,0.0,0.0,72,0.04,-RA,,0.04,WeatherDisplay:10.37,2013-03-06 00:15:00,
2013-03-05 16:20:00,46.2,37.7,29.82,WSW,254,0.0,0.0,72,0.04,-RA,,0.04,WeatherDisplay:10.37,2013-03-06 00:20:00,
2013-03-05 16:25:00,46.0,37.9,29.82,WSW,254,0.0,0.0,73,0.04,-RA,,0.04,WeatherDisplay:10.37,2013-03-06 00:25:00,
2013-03-05 16:30:00,46.0,37.9,29.82,WSW,254,0.0,0.0,73,0.04,-RA,,0.04,WeatherDisplay:10.37,2013-03-06 00:30:00,
2013-03-05 16:35:00,46.0,37.9,29.82,WSW,254,0.0,0.0,73,0.04,-RA,,0.04,WeatherDisplay:10.37,2013-03-06 00:35:00,
2013-03-05 16:40:00,46.0,37.9,29.82,WSW,254,0.0,0.0,73,0.04,-RA,,0.04,WeatherDisplay:10.37,2013-03-06 00:40:00,
2013-03-05 16:45:00,45.9,37.7,29.82,WSW,254,0.0,0.0,73,0.04,-RA,,0.04,WeatherDisplay:10.37,2013-03-06 00:45:00,
2013-03-05 16:50:00,45.9,37.7,29.82,WSW,254,0.0,0.0,73,0.04,-RA,,0.04,WeatherDisplay:10.37,2013-03-06 00:50:00,
2013-03-05 16:55:00,45.9,37.7,29.79,WSW,254,0.0,0.0,73,0.04,-RA,,0.04,WeatherDisplay:10.37,2013-03-06 00:55:00,
2013-03-05 17:00:00,45.7,37.5,29.79,West,267,2.7,0.0,73,0.04,-RA,,0.04,WeatherDisplay:10.37,2013-03-06 01:00:00,
2013-03-05 17:05:00,45.5,37.7,29.79,West,267,0.0,0.0,74,0.04,-RA,,0.04,WeatherDisplay:10.37,2013-03-06 01:05:00,
2013-03-05 17:10:00,45.5,37.7,29.79,West,267,0.0,0.0,74,0.00,-RA,,0.04,WeatherDisplay:10.37,2013-03-06 01:10:00,
2013-03-05 17:15:00,45.3,37.5,29.79,West,267,0.0,0.0,74,0.00,-RA,,0.04,WeatherDisplay:10.37,2013-03-06 01:15:00,
2013-03-05 17:20:00,45.3,37.5,29.79,West,267,0.0,0.0,74,0.04,-RA,,0.08,WeatherDisplay:10.37,2013-03-06 01:20:00,
2013-03-05 17:25:00,45.3,37.5,29.79,West,267,0.0,0.0,74,0.04,-RA,,0.08,WeatherDisplay:10.37,2013-03-06 01:25:00,
2013-03-05 17:30:00,45.1,37.3,29.79,West,267,0.0,0.0,74,0.04,-RA,,0.08,WeatherDisplay:10.37,2013-03-06 01:30:00,
2013-03-05 17:35:00,45.1,37.3,29.79,West,267,2.3,0.0,74,0.04,-RA,,0.08,WeatherDisplay:10.37,2013-03-06 01:35:00,
2013-03-05 17:40:00,45.0,37.2,29.79,West,267,0.0,0.0,74,0.04,-RA,,0.08,WeatherDisplay:10.37,2013-03-06 01:40:00,
2013-03-05 17:45:00,45.0,37.2,29.79,West,267,2.3,0.0,74,0.04,-RA,,0.08,WeatherDisplay:10.37,2013-03-06 01:45:00,
2013-03-05 17:50:00,44.8,37.3,29.79,West,267,0.0,0.0,75,0.04,-RA,,0.08,WeatherDisplay:10.37,2013-03-06 01:50:00,
2013-03-05 17:55:00,44.8,37.3,29.79,West,273,3.5,3.5,75,0.04,-RA,,0.08,WeatherDisplay:10.37,2013-03-06 01:55:00,
2013-03-05 18:00:00,44.6,37.2,29.79,WNW,302,5.8,5.8,75,0.04,-RA,,0.08,WeatherDisplay:10.37,2013-03-06 02:00:00,
2013-03-05 18:05:00,44.4,37.0,29.79,NNW,340,0.0,0.0,75,0.04,-RA,,0.08,WeatherDisplay:10.37,2013-03-06 02:05:00,
2013-03-05 18:10:00,44.4,37.0,29.79,SSE,155,3.5,0.0,75,0.04,-RA,,0.08,WeatherDisplay:10.37,2013-03-06 02:10:00,
2013-03-05 18:15:00,44.2,36.8,29.79,East,89,0.0,0.0,75,0.04,-RA,,0.08,WeatherDisplay:10.37,2013-03-06 02:15:00,
2013-03-05 18:20:00,44.1,36.6,29.79,East,89,0.0,0.0,75,0.04,-RA,,0.12,WeatherDisplay:10.37,2013-03-06 02:20:00,
2013-03-05 18:25:00,44.1,37.0,29.79,NNW,346,2.3,0.0,76,0.04,-RA,,0.12,WeatherDisplay:10.37,2013-03-06 02:25:00,
2013-03-05 18:30:00,44.1,37.0,29.79,NNW,346,0.0,0.0,76,0.04,-RA,,0.12,WeatherDisplay:10.37,2013-03-06 02:30:00,
2013-03-05 18:35:00,43.9,36.8,29.79,NNW,346,0.0,0.0,76,0.04,-RA,,0.12,WeatherDisplay:10.37,2013-03-06 02:35:00,
2013-03-05 18:40:00,43.9,36.8,29.79,NNW,346,3.5,0.0,76,0.04,-RA,,0.12,WeatherDisplay:10.37,2013-03-06 02:40:00,
2013-03-05 18:45:00,43.9,36.8,29.79,North,9,2.3,0.0,76,0.04,-RA,,0.12,WeatherDisplay:10.37,2013-03-06 02:45:00,
2013-03-05 18:50:00,43.7,36.6,29.79,North,2,2.3,2.3,76,0.04,-RA,,0.12,WeatherDisplay:10.37,2013-03-06 02:50:00,
2013-03-05 18:55:00,43.7,36.6,29.79,North,2,0.0,0.0,76,0.04,-RA,,0.12,WeatherDisplay:10.37,2013-03-06 02:55:00,
2013-03-05 19:00:00,43.7,36.6,29.79,North,2,0.0,0.0,76,0.04,-RA,,0.12,WeatherDisplay:10.37,2013-03-06 03:00:00,
2013-03-05 19:05:00,43.7,36.6,29.79,North,2,0.0,0.0,76,0.04,-RA,,0.12,WeatherDisplay:10.37,2013-03-06 03:05:00,
2013-03-05 19:10:00,43.5,36.5,29.79,North,2,0.0,0.0,76,0.08,-RA,,0.16,WeatherDisplay:10.37,2013-03-06 03:10:00,
2013-03-05 19:15:00,43.5,36.8,29.79,North,2,0.0,0.0,77,0.08,-RA,,0.16,WeatherDisplay:10.37,2013-03-06 03:15:00,
2013-03-05 19:20:00,43.5,36.8,29.79,North,2,0.0,0.0,77,0.04,-RA,,0.16,WeatherDisplay:10.37,2013-03-06 03:20:00,
2013-03-05 19:25:00,43.5,36.8,29.79,North,2,0.0,0.0,77,0.04,-RA,,0.16,WeatherDisplay:10.37,2013-03-06 03:25:00,
2013-03-05 19:30:00,43.5,36.8,29.79,North,2,0.0,0.0,77,0.04,-RA,,0.16,WeatherDisplay:10.37,2013-03-06 03:30:00,
2013-03-05 19:35:00,43.5,36.8,29.79,North,2,0.0,0.0,77,0.04,-RA,,0.16,WeatherDisplay:10.37,2013-03-06 03:35:00,
2013-03-05 19:40:00,43.5,36.8,29.79,North,2,0.0,0.0,77,0.04,-RA,,0.16,WeatherDisplay:10.37,2013-03-06 03:40:00,
2013-03-05 19:45:00,43.5,36.8,29.79,North,2,0.0,0.0,77,0.04,-RA,,0.16,WeatherDisplay:10.37,2013-03-06 03:45:00,
2013-03-05 19:50:00,43.5,36.8,29.79,North,2,0.0,0.0,77,0.04,-RA,,0.16,WeatherDisplay:10.37,2013-03-06 03:50:00,
2013-03-05 19:55:00,43.5,36.8,29.79,North,2,0.0,0.0,77,0.04,-RA,,0.16,WeatherDisplay:10.37,2013-03-06 03:55:00,
2013-03-05 20:00:00,43.3,36.6,29.79,North,2,2.3,0.0,77,0.04,-RA,,0.16,WeatherDisplay:10.37,2013-03-06 04:00:00,
2013-03-05 20:05:00,43.3,36.6,29.79,North,2,0.0,0.0,77,0.04,-RA,,0.16,WeatherDisplay:10.37,2013-03-06 04:05:00,
2013-03-05 20:10:00,43.3,36.9,29.79,North,2,0.0,0.0,78,0.00,-RA,,0.16,WeatherDisplay:10.37,2013-03-06 04:10:00,
2013-03-05 20:15:00,43.3,36.9,29.79,North,2,0.0,0.0,78,0.00,-RA,,0.16,WeatherDisplay:10.37,2013-03-06 04:15:00,
2013-03-05 20:20:00,43.3,36.9,29.79,North,2,0.0,0.0,78,0.00,-RA,,0.16,WeatherDisplay:10.37,2013-03-06 04:20:00,
2013-03-05 20:25:00,43.3,36.9,29.79,North,2,3.5,3.5,78,0.00,-RA,,0.16,WeatherDisplay:10.37,2013-03-06 04:25:00,
2013-03-05 20:30:00,43.3,36.9,29.79,North,2,0.0,0.0,78,0.00,-RA,,0.16,WeatherDisplay:10.37,2013-03-06 04:30:00,
2013-03-05 20:35:00,43.2,36.8,29.79,North,2,0.0,0.0,78,0.00,-RA,,0.16,WeatherDisplay:10.37,2013-03-06 04:35:00,
2013-03-05 20:40:00,43.2,36.8,29.79,North,2,0.0,0.0,78,0.00,-RA,,0.16,WeatherDisplay:10.37,2013-03-06 04:40:00,
2013-03-05 20:45:00,43.2,37.1,29.79,North,2,0.0,0.0,79,0.00,-RA,,0.16,WeatherDisplay:10.37,2013-03-06 04:45:00,
2013-03-05 20:50:00,43.2,37.1,29.79,North,2,3.5,3.5,79,0.00,-RA,,0.16,WeatherDisplay:10.37,2013-03-06 04:50:00,
2013-03-05 20:55:00,43.2,37.1,29.79,North,2,2.3,2.3,79,0.00,-RA,,0.16,WeatherDisplay:10.37,2013-03-06 04:55:00,
2013-03-05 21:00:00,43.2,37.1,29.79,North,2,2.3,0.0,79,0.00,-RA,,0.16,WeatherDisplay:10.37,2013-03-06 05:00:00,
2013-03-05 21:05:00,43.2,37.1,29.79,NNW,341,3.5,3.5,79,0.00,-RA,,0.16,WeatherDisplay:10.37,2013-03-06 05:05:00,
2013-03-05 21:10:00,43.2,37.1,29.76,NW,316,2.3,0.0,79,0.00,-RA,,0.16,WeatherDisplay:10.37,2013-03-06 05:10:00,
2013-03-05 21:15:00,43.2,37.1,29.76,NW,316,0.0,0.0,79,0.00,-RA,,0.16,WeatherDisplay:10.37,2013-03-06 05:15:00,
2013-03-05 21:20:00,43.2,37.1,29.76,NW,316,0.0,0.0,79,0.00,-RA,,0.16,WeatherDisplay:10.37,2013-03-06 05:20:00,
2013-03-05 21:25:00,43.2,37.1,29.79,NW,316,0.0,0.0,79,0.00,-RA,,0.16,WeatherDisplay:10.37,2013-03-06 05:25:00,
2013-03-05 21:30:00,43.0,37.2,29.79,NNW,327,3.5,3.5,80,0.00,-RA,,0.16,WeatherDisplay:10.37,2013-03-06 05:30:00,
2013-03-05 21:35:00,43.0,37.2,29.79,NE,41,3.5,3.5,80,0.00,-RA,,0.16,WeatherDisplay:10.37,2013-03-06 05:35:00,
2013-03-05 21:40:00,43.0,37.2,29.76,NNE,20,4.6,4.6,80,0.00,-RA,,0.16,WeatherDisplay:10.37,2013-03-06 05:40:00,
2013-03-05 21:45:00,43.0,37.2,29.76,NNW,343,3.5,0.0,80,0.00,-RA,,0.16,WeatherDisplay:10.37,2013-03-06 05:45:00,
2013-03-05 21:50:00,43.0,37.2,29.76,NNW,343,2.3,0.0,80,0.04,-RA,,0.20,WeatherDisplay:10.37,2013-03-06 05:50:00,
2013-03-05 21:55:00,43.0,37.2,29.76,NNW,343,0.0,0.0,80,0.04,-RA,,0.20,WeatherDisplay:10.37,2013-03-06 05:55:00,
2013-03-05 22:00:00,43.0,37.2,29.76,NNW,343,2.3,2.3,80,0.04,-RA,,0.20,WeatherDisplay:10.37,2013-03-06 06:00:00,
2013-03-05 22:05:00,43.0,37.2,29.76,NNW,335,3.5,3.5,80,0.04,-RA,,0.20,WeatherDisplay:10.37,2013-03-06 06:05:00,
2013-03-05 22:10:00,43.0,37.2,29.76,NNW,335,2.3,2.3,80,0.04,-RA,,0.20,WeatherDisplay:10.37,2013-03-06 06:10:00,
2013-03-05 22:15:00,43.0,37.5,29.76,NNW,335,2.3,0.0,81,0.04,-RA,,0.20,WeatherDisplay:10.37,2013-03-06 06:15:00,
2013-03-05 22:20:00,43.0,37.5,29.76,NNW,335,0.0,0.0,81,0.04,-RA,,0.20,WeatherDisplay:10.37,2013-03-06 06:20:00,
2013-03-05 22:25:00,43.0,37.5,29.76,NNW,335,0.0,0.0,81,0.04,-RA,,0.20,WeatherDisplay:10.37,2013-03-06 06:25:00,
2013-03-05 22:30:00,43.0,37.5,29.76,NNW,335,2.3,0.0,81,0.04,-RA,,0.20,WeatherDisplay:10.37,2013-03-06 06:30:00,
2013-03-05 22:35:00,42.8,37.4,29.76,NNW,335,2.7,0.0,81,0.04,-RA,,0.20,WeatherDisplay:10.37,2013-03-06 06:35:00,
2013-03-05 22:40:00,42.8,37.4,29.76,NNW,335,2.3,0.0,81,0.04,-RA,,0.20,WeatherDisplay:10.37,2013-03-06 06:40:00,
2013-03-05 22:45:00,42.8,37.4,29.76,NNW,343,3.6,0.0,81,0.04,-RA,,0.20,WeatherDisplay:10.37,2013-03-06 06:45:00,
2013-03-05 22:50:00,42.8,37.4,29.76,North,5,3.6,3.6,81,0.00,-RA,,0.20,WeatherDisplay:10.37,2013-03-06 06:50:00,
2013-03-05 22:55:00,42.8,37.4,29.73,North,5,2.3,0.0,81,0.00,-RA,,0.20,WeatherDisplay:10.37,2013-03-06 06:55:00,
2013-03-05 23:00:00,42.8,37.4,29.73,NNE,22,3.5,3.5,81,0.00,-RA,,0.20,WeatherDisplay:10.37,2013-03-06 07:00:00,
2013-03-05 23:05:00,42.8,37.4,29.73,North,10,3.5,3.6,81,0.00,OVC,,0.20,WeatherDisplay:10.37,2013-03-06 07:05:00,
2013-03-05 23:10:00,42.6,37.5,29.73,NW,324,3.5,3.5,82,0.00,OVC,,0.20,WeatherDisplay:10.37,2013-03-06 07:10:00,
2013-03-05 23:15:00,42.6,37.5,29.73,North,353,3.5,3.5,82,0.00,OVC,,0.20,WeatherDisplay:10.37,2013-03-06 07:15:00,
2013-03-05 23:20:00,42.6,37.5,29.73,NNW,342,3.5,3.5,82,0.00,OVC,,0.20,WeatherDisplay:10.37,2013-03-06 07:20:00,
2013-03-05 23:25:00,42.6,37.5,29.73,North,353,3.5,0.0,82,0.00,OVC,,0.20,WeatherDisplay:10.37,2013-03-06 07:25:00,
2013-03-05 23:30:00,42.4,37.3,29.73,NNW,345,2.3,0.0,82,0.00,OVC,,0.20,WeatherDisplay:10.37,2013-03-06 07:30:00,
2013-03-05 23:35:00,42.4,37.3,29.73,NNW,345,3.5,0.0,82,0.00,OVC,,0.20,WeatherDisplay:10.37,2013-03-06 07:35:00,
2013-03-05 23:40:00,42.4,37.3,29.73,North,353,3.5,0.0,82,0.00,OVC,,0.20,WeatherDisplay:10.37,2013-03-06 07:40:00,
2013-03-05 23:45:00,42.4,37.3,29.73,North,3,5.8,5.8,82,0.00,OVC,,0.20,WeatherDisplay:10.37,2013-03-06 07:45:00,
2013-03-05 23:50:00,42.4,37.3,29.73,North,3,2.3,0.0,82,0.00,OVC,,0.20,WeatherDisplay:10.37,2013-03-06 07:50:00,
2013-03-05 23:55:00,42.4,37.3,29.73,North,9,3.1,3.1,82,0.00,OVC,,0.20,WeatherDisplay:10.37,2013-03-06 07:55:00,